H1 CPF 2 NER 2022 3 2 9 061 01 glonass107 H2 0706501 9107 32393 2022 3 2 0 0 0 2022 3 5 23 45 0 900 1 1 0 0 0 1 H9 10 0 59640 0.00000 0 -6474240.852 -22722330.676 9600639.241 10 0 59640 900.00000 0 -6712371.250 -23704187.179 6602260.933 10 0 59640 1800.00000 0 -6952157.172 -24295380.755 3475580.033 10 0 59640 2700.00000 0 -7138299.217 -24490512.304 281376.594 10 0 59640 3600.00000 0 -7216473.650 -24297398.029 -2918294.901 10 0 59640 4500.00000 0 -7135862.394 -23736646.704 -6061313.357 10 0 59640 5400.00000 0 -6851538.822 -22840719.849 -9086697.122 10 0 59640 6300.00000 0 -6326608.269 -21652515.567 -11935784.730 10 0 59640 7200.00000 0 -5534012.756 -20223536.605 -14553367.364 10 0 59640 8100.00000 0 -4457923.838 -18611720.322 -16888751.523 10 0 59640 9000.00000 0 -3094664.834 -16879021.879 -18896731.977 10 0 59640 9900.00000 0 -1453123.594 -15088851.918 -20538457.012 10 0 59640 10800.00000 0 445361.913 -13303475.430 -21782170.347 10 0 59640 11700.00000 0 2567641.069 -11581479.675 -22603816.517 10 0 59640 12600.00000 0 4869885.446 -9975415.824 -22987499.036 10 0 59640 13500.00000 0 7299174.972 -8529711.368 -22925783.394 10 0 59640 14400.00000 0 9795470.963 -7278939.053 -22419839.623 10 0 59640 15300.00000 0 12293895.596 -6246513.294 -21479421.845 10 0 59640 16200.00000 0 14727224.844 -5443867.398 -20122685.069 10 0 59640 17100.00000 0 17028492.997 -4870145.122 -18375842.142 10 0 59640 18000.00000 0 19133601.889 -4512419.021 -16272666.636 10 0 59640 18900.00000 0 20983827.493 -4346426.202 -13853850.176 10 0 59640 19800.00000 0 22528120.319 -4337790.681 -11166225.376 10 0 59640 20700.00000 0 23725103.997 -4443681.185 -8261868.315 10 0 59640 21600.00000 0 24544688.611 -4614834.836 -5197096.896 10 0 59640 22500.00000 0 24969230.951 -4797861.561 -2031383.706 10 0 59640 23400.00000 0 24994192.419 -4937731.893 1173795.901 10 0 59640 24300.00000 0 24628266.286 -4980342.676 4356158.259 10 0 59640 25200.00000 0 23892968.139 -4875051.494 7453824.965 10 0 59640 26100.00000 0 22821706.024 -4577071.555 10406531.403 10 0 59640 27000.00000 0 21458368.874 -4049624.391 13156806.014 10 0 59640 27900.00000 0 19855492.196 -3265757.678 15651096.615 10 0 59640 28800.00000 0 18072078.106 -2209749.641 17840820.922 10 0 59640 29700.00000 0 16171161.439 -878038.878 19683320.121 10 0 59640 30600.00000 0 14217224.413 720361.441 21142696.342 10 0 59640 31500.00000 0 12273568.783 2563984.116 22190517.185 10 0 59640 32400.00000 0 10399756.018 4619559.695 22806373.344 10 0 59640 33300.00000 0 8649223.042 6843173.434 22978278.318 10 0 59640 34200.00000 0 7067173.547 9181879.936 22702902.374 10 0 59640 35100.00000 0 5688832.986 11575708.635 21985636.289 10 0 59640 36000.00000 0 4538139.851 13959976.745 20840483.732 10 0 59640 36900.00000 0 3626927.315 16267813.189 19289784.541 10 0 59640 37800.00000 0 2954628.436 18432788.147 17363774.494 10 0 59640 38700.00000 0 2508515.916 20391538.353 15099990.352 10 0 59640 39600.00000 0 2264464.785 22086278.290 12542532.146 10 0 59640 40500.00000 0 2188204.215 23467092.383 9741197.429 10 0 59640 41400.00000 0 2237003.945 24493912.421 6750504.835 10 0 59640 42300.00000 0 2361722.562 25138097.774 3628626.611 10 0 59640 43200.00000 0 2509129.533 25383552.844 436251.469 10 0 59640 44100.00000 0 2624401.568 25227335.741 -2764599.466 10 0 59640 45000.00000 0 2653686.731 24679733.680 -5911779.984 10 0 59640 45900.00000 0 2546627.102 23763803.110 -8944225.506 10 0 59640 46800.00000 0 2258732.887 22514394.985 -11803135.595 10 0 59640 47700.00000 0 1753507.512 20976707.117 -14433109.282 10 0 59640 48600.00000 0 1004233.938 19204425.038 -16783211.593 10 0 59640 49500.00000 0 -4653.046 17257529.684 -18807951.290 10 0 59640 50400.00000 0 -1276666.290 15199863.677 -20468151.711 10 0 59640 51300.00000 0 -2802875.526 13096557.520 -21731698.985 10 0 59640 52200.00000 0 -4562043.198 11011422.340 -22574154.264 10 0 59640 53100.00000 0 -6521281.900 9004416.832 -22979219.188 10 0 59640 54000.00000 0 -8637207.035 7129292.572 -22939046.487 10 0 59640 54900.00000 0 -10857537.994 5431514.281 -22454390.329 10 0 59640 55800.00000 0 -13123082.677 3946540.245 -21534593.718 10 0 59640 56700.00000 0 -15370024.446 2698533.145 -20197413.053 10 0 59640 57600.00000 0 -17532418.042 1699553.922 -18468682.660 10 0 59640 58500.00000 0 -19544792.031 949271.539 -16381824.933 10 0 59640 59400.00000 0 -21344750.669 435200.184 -13977214.436 10 0 59640 60300.00000 0 -22875467.644 133453.713 -11301407.044 10 0 59640 61200.00000 0 -24087967.997 9985.647 -8406247.880 10 0 59640 62100.00000 0 -24943102.927 22262.616 -5347874.305 10 0 59640 63000.00000 0 -25413134.451 121300.817 -2185632.446 10 0 59640 63900.00000 0 -25482862.758 253979.557 1019072.081 10 0 59640 64800.00000 0 -25150248.084 365533.852 4203967.097 10 0 59640 65700.00000 0 -24426499.911 402120.164 7307127.049 10 0 59640 66600.00000 0 -23335628.751 313345.900 10268182.297 10 0 59640 67500.00000 0 -21913478.464 54654.472 13029500.330 10 0 59640 68400.00000 0 -20206279.059 -410536.393 15537315.116 10 0 59640 69300.00000 0 -18268780.374 -1109035.090 17742781.745 10 0 59640 70200.00000 0 -16162044.781 -2056493.032 19602935.100 10 0 59640 71100.00000 0 -13950991.489 -3256498.167 21081533.317 10 0 59640 72000.00000 0 -11701795.644 -4700184.898 22149769.068 10 0 59640 72900.00000 0 -9479251.277 -6366378.388 22786834.576 10 0 59640 73800.00000 0 -7344208.701 -8222268.528 22980329.200 10 0 59640 74700.00000 0 -5351193.624 -10224586.279 22726501.592 10 0 59640 75600.00000 0 -3546307.366 -12321233.925 22030321.789 10 0 59640 76500.00000 0 -1965495.545 -14453301.471 20905381.922 10 0 59640 77400.00000 0 -633256.989 -16557384.978 19373627.626 10 0 59640 78300.00000 0 438154.173 -18568109.928 17464925.581 10 0 59640 79200.00000 0 1249001.183 -20420753.893 15216475.819 10 0 59640 80100.00000 0 1811802.209 -22053858.534 12672080.587 10 0 59640 81000.00000 0 2150545.660 -23411721.401 9881284.406 10 0 59640 81900.00000 0 2299418.182 -24446663.054 6898402.513 10 0 59640 82800.00000 0 2301100.791 -25120974.515 3781457.264 10 0 59640 83700.00000 0 2204706.864 -25408463.652 591043.790 10 0 59640 84600.00000 0 2063450.649 -25295536.105 -2610852.407 10 0 59640 85500.00000 0 1932146.141 -24781766.058 -5762062.272 10 0 59641 0.00000 0 1864643.059 -23879933.856 -8801440.303 10 0 59641 900.00000 0 1911308.967 -22615529.202 -11670049.919 10 0 59641 1800.00000 0 2116664.319 -21025742.949 -14312299.965 10 0 59641 2700.00000 0 2517270.240 -19157988.758 -16677016.186 10 0 59641 3600.00000 0 3139958.162 -17068018.079 -18718423.407 10 0 59641 4500.00000 0 4000475.663 -14817706.877 -20397021.901 10 0 59641 5400.00000 0 5102605.395 -12472606.302 -21680341.824 10 0 59641 6300.00000 0 6437794.262 -10099358.627 -22543562.252 10 0 59641 7200.00000 0 7985308.725 -7763085.084 -22969983.907 10 0 59641 8100.00000 0 9712910.522 -5524852.921 -22951347.355 10 0 59641 9000.00000 0 11578025.654 -3439325.434 -22487991.141 10 0 59641 9900.00000 0 13529359.137 -1552691.219 -21588847.053 10 0 59641 10800.00000 0 15508889.761 99042.803 -20271272.464 10 0 59641 11700.00000 0 17454163.298 1491324.882 -18560722.438 10 0 59641 12600.00000 0 19300790.007 2611846.409 -16490267.107 10 0 59641 13500.00000 0 20985043.638 3460812.316 -14099962.536 10 0 59641 14400.00000 0 22446454.376 4050683.143 -11436086.028 10 0 59641 15300.00000 0 23630287.948 4405399.789 -8550249.528 10 0 59641 16200.00000 0 24489807.283 4559123.655 -5498407.253 10 0 59641 17100.00000 0 24988221.671 4554545.223 -2339775.945 10 0 59641 18000.00000 0 25100240.943 4440832.382 864311.687 10 0 59641 18900.00000 0 24813168.407 4271305.331 4051598.249 10 0 59641 19800.00000 0 24127485.409 4100936.728 7160114.351 10 0 59641 20700.00000 0 23056901.677 3983783.441 10129388.560 10 0 59641 21600.00000 0 21627868.097 3970459.522 12901630.434 10 0 59641 22500.00000 0 19878571.315 4105758.496 15422862.857 10 0 59641 23400.00000 0 17857451.585 4426526.904 17643980.736 10 0 59641 24300.00000 0 15621305.459 4959880.479 19521714.737 10 0 59641 25200.00000 0 13233052.523 5721839.846 21019480.702 10 0 59641 26100.00000 0 10759259.642 6716444.803 22108097.661 10 0 59641 27000.00000 0 8267526.316 7935385.907 22766360.209 10 0 59641 27900.00000 0 5823840.479 9358170.126 22981453.935 10 0 59641 28800.00000 0 3490015.299 10952814.587 22749205.744 10 0 59641 29700.00000 0 1321313.878 12677040.072 22074164.282 10 0 59641 30600.00000 0 -635639.339 14479914.716 20969508.970 10 0 59641 31500.00000 0 -2344573.743 16303879.183 19456789.577 10 0 59641 32400.00000 0 -3780843.611 18087068.473 17565501.590 10 0 59641 33300.00000 0 -4932203.117 19765832.893 15332505.843 10 0 59641 34200.00000 0 -5799054.305 21277352.138 12801304.072 10 0 59641 35100.00000 0 -6394159.464 22562232.578 10021184.844 10 0 59641 36000.00000 0 -6741831.922 23566978.439 7046256.976 10 0 59641 36900.00000 0 -6876641.277 24246232.929 3934389.878 10 0 59641 37800.00000 0 -6841689.647 24564695.170 746082.067 10 0 59641 38700.00000 0 -6686533.447 24498632.562 -2456719.525 10 0 59641 39600.00000 0 -6464840.029 24036925.389 -5611825.802 10 0 59641 40500.00000 0 -6231879.430 23181600.356 -8658013.478 10 0 59641 41400.00000 0 -6041958.119 21947831.213 -11536211.073 10 0 59641 42300.00000 0 -5945903.630 20363407.140 -14190639.862 10 0 59641 43200.00000 0 -5988706.471 18467691.667 -16569888.031 10 0 59641 44100.00000 0 -6207418.674 16310115.994 -18627897.858 10 0 59641 45000.00000 0 -6629397.260 13948269.774 -20324847.624 10 0 59641 45900.00000 0 -7270966.250 11445668.669 -21627912.279 10 0 59641 46800.00000 0 -8136553.256 8869291.006 -22511889.302 10 0 59641 47700.00000 0 -9218336.896 6286985.051 -22959678.676 10 0 59641 48600.00000 0 -10496420.129 3764853.320 -22962608.674 10 0 59641 49500.00000 0 -11939522.972 1364721.029 -22520601.771 10 0 59641 50400.00000 0 -13506166.574 -858207.750 -21642177.728 10 0 59641 51300.00000 0 -15146300.492 -2857410.518 -20344293.720 10 0 59641 52200.00000 0 -16803306.608 -4596739.214 -18652024.015 10 0 59641 53100.00000 0 -18416297.430 -6051676.273 -16598084.622 10 0 59641 54000.00000 0 -19922614.054 -7210102.563 -14222210.972 10 0 59641 54900.00000 0 -21260420.440 -8072545.846 -11570399.463 10 0 59641 55800.00000 0 -22371286.070 -8651899.743 -8694026.389 10 0 59641 56700.00000 0 -23202649.066 -8972625.265 -5648860.269 10 0 59641 57600.00000 0 -23710056.245 -9069468.528 -2493985.871 10 0 59641 58500.00000 0 -23859085.387 -8985748.699 709339.601 10 0 59641 59400.00000 0 -23626867.924 -8771288.487 3898876.140 10 0 59641 60300.00000 0 -23003146.717 -8480074.892 7012613.104 10 0 59641 61200.00000 0 -21990822.959 -8167749.522 9989979.803 10 0 59641 62100.00000 0 -20605967.739 -7889035.371 12773030.321 10 0 59641 63000.00000 0 -18877296.343 -7695209.850 15307578.760 10 0 59641 63900.00000 0 -16845126.198 -7631732.082 17544261.913 10 0 59641 64800.00000 0 -14559861.203 -7736126.019 19439507.981 10 0 59641 65700.00000 0 -12080065.242 -8036210.149 20956391.884 10 0 59641 66600.00000 0 -9470205.154 -8548749.794 22065359.939 10 0 59641 67500.00000 0 -6798157.249 -9278590.063 22744809.584 10 0 59641 68400.00000 0 -4132581.422 -10218307.052 22981512.647 10 0 59641 69300.00000 0 -1540272.447 -11348392.850 22770873.866 10 0 59641 70200.00000 0 916401.186 -12637967.223 22117019.694 10 0 59641 71100.00000 0 3181864.366 -14045986.520 21032715.707 10 0 59641 72000.00000 0 5209410.004 -15522899.151 19539114.391 10 0 59641 72900.00000 0 6962895.437 -17012678.092 17665338.373 10 0 59641 73800.00000 0 8417990.761 -18455144.837 15447907.412 10 0 59641 74700.00000 0 9562928.159 -19788486.743 12930020.643 10 0 59641 75600.00000 0 10398722.522 -20951861.591 10160708.415 10 0 59641 76500.00000 0 10938855.954 -21887979.391 7193870.706 10 0 59641 77400.00000 0 11208441.384 -22545552.446 4087221.453 10 0 59641 78300.00000 0 11242902.540 -22881510.361 901159.977 10 0 59641 79200.00000 0 11086227.857 -22862886.709 -2302407.938 10 0 59641 80100.00000 0 10788873.713 -22468298.013 -5461275.690 10 0 59641 81000.00000 0 10405406.996 -21688953.157 -8514144.375 10 0 59641 81900.00000 0 9991987.620 -20529151.088 -11401810.476 10 0 59641 82800.00000 0 9603797.994 -19006246.369 -14068309.584 10 0 59641 83700.00000 0 9292528.224 -17150084.355 -16461994.312 10 0 59641 84600.00000 0 9104023.070 -15001929.810 -18536526.174 10 0 59641 85500.00000 0 9076189.441 -12612933.775 -20251762.974 10 0 59642 0.00000 0 9237252.036 -10042202.511 -21574525.571 10 0 59642 900.00000 0 9604430.077 -7354546.866 -22479230.950 10 0 59642 1800.00000 0 10183090.063 -4618008.206 -22948378.725 10 0 59642 2700.00000 0 10966410.249 -1901257.729 -22972885.016 10 0 59642 3600.00000 0 11935570.942 729020.974 -22552256.004 10 0 59642 4500.00000 0 13060463.230 3210660.502 -21694598.883 10 0 59642 5400.00000 0 14300887.366 5488345.880 -20416469.779 10 0 59642 6300.00000 0 15608191.798 7515663.053 -18742561.043 10 0 59642 7200.00000 0 16927285.509 9256775.773 -16705233.162 10 0 59642 8100.00000 0 18198940.685 10687662.236 -14343899.260 10 0 59642 9000.00000 0 19362290.352 11796860.726 -11704272.860 10 0 59642 9900.00000 0 20357417.043 12585693.559 -8837492.357 10 0 59642 10800.00000 0 21127924.309 13067960.312 -5799138.053 10 0 59642 11700.00000 0 21623382.977 13269113.289 -2648160.000 10 0 59642 12600.00000 0 21801548.820 13224949.937 554263.012 10 0 59642 13500.00000 0 21630257.375 12979877.334 3745911.344 10 0 59642 14400.00000 0 21088914.879 12584822.135 6864736.060 10 0 59642 15300.00000 0 20169520.992 12094874.528 9850070.068 10 0 59642 16200.00000 0 18877178.618 11566766.286 12643814.651 10 0 59642 17100.00000 0 17230067.688 11056290.294 15191577.569 10 0 59642 18000.00000 0 15258882.470 10615771.477 17443739.676 10 0 59642 18900.00000 0 13005754.714 10291697.085 19356428.598 10 0 59642 19800.00000 0 10522706.604 10122607.517 20892379.900 10 0 59642 20700.00000 0 7869697.612 10137337.755 22021668.425 10 0 59642 21600.00000 0 5112346.272 10353684.621 22722295.312 10 0 59642 22500.00000 0 2319421.702 10777556.839 22980619.074 10 0 59642 23400.00000 0 -439790.642 11402644.412 22791622.276 10 0 59642 24300.00000 0 -3098139.332 12210621.661 22159008.669 10 0 59642 25200.00000 0 -5593163.222 13171875.657 21095128.971 10 0 59642 26100.00000 0 -7869447.309 14246729.413 19620736.853 10 0 59642 27000.00000 0 -9880680.525 15387108.202 17764580.082 10 0 59642 27900.00000 0 -11591330.414 16538578.576 15562834.932 10 0 59642 28800.00000 0 -12977865.742 17642673.742 13058395.216 10 0 59642 29700.00000 0 -14029477.293 18639406.864 10300030.138 10 0 59642 30600.00000 0 -14748268.336 19469865.838 7341427.790 10 0 59642 31500.00000 0 -15148908.526 20078779.646 4240143.568 10 0 59642 32400.00000 0 -15257767.827 20416947.679 1056474.559 10 0 59642 33300.00000 0 -15111568.828 20443429.341 -2147717.546 10 0 59642 34200.00000 0 -14755616.107 20127401.485 -5310211.455 10 0 59642 35100.00000 0 -14241678.924 19449605.486 -8369635.305 10 0 59642 36000.00000 0 -13625617.858 18403323.158 -11266655.986 10 0 59642 36900.00000 0 -12964856.414 16994840.733 -13945125.580 10 0 59642 37800.00000 0 -12315804.692 15243381.576 -16353163.015 10 0 59642 38700.00000 0 -11731343.750 13180510.540 -18444150.579 10 0 59642 39600.00000 0 -11258476.287 10849034.759 -20177626.795 10 0 59642 40500.00000 0 -10936241.915 8301446.399 -21520059.470 10 0 59642 41400.00000 0 -10793983.905 5597971.497 -22445485.107 10 0 59642 42300.00000 0 -10850039.489 2804305.128 -22936003.365 10 0 59642 43200.00000 0 -11110908.095 -10874.346 -22982117.997 10 0 59642 44100.00000 0 -11570932.061 -2778510.366 -22582918.319 10 0 59642 45000.00000 0 -12212503.251 -5431786.096 -21746098.022 10 0 59642 45900.00000 0 -13006787.285 -7908648.382 -20487810.885 10 0 59642 46800.00000 0 -13914935.765 -10154134.622 -18832365.689 10 0 59642 47700.00000 0 -14889736.633 -12122407.291 -16811765.438 10 0 59642 48600.00000 0 -15877634.522 -13778412.704 -14465098.727 10 0 59642 49500.00000 0 -16821037.395 -15099095.849 -11837793.804 10 0 59642 50400.00000 0 -17660813.400 -16074121.039 -8980748.636 10 0 59642 51300.00000 0 -18338873.578 -16706068.631 -5949352.729 10 0 59642 52200.00000 0 -18800731.864 -17010099.607 -2802418.821 10 0 59642 53100.00000 0 -18997934.294 -17013102.085 398955.287 10 0 59642 54000.00000 0 -18890254.259 -16752355.593 3592572.868 10 0 59642 54900.00000 0 -18447560.126 -16273769.411 6716349.206 10 0 59642 55800.00000 0 -17651274.970 -15629769.409 9709523.260 10 0 59642 56700.00000 0 -16495365.205 -14876922.925 12513845.882 10 0 59642 57600.00000 0 -14986814.637 -14073402.502 15074720.713 10 0 59642 58500.00000 0 -13145562.250 -13276396.287 17342274.689 10 0 59642 59400.00000 0 -11003904.675 -12539575.278 19272336.593 10 0 59642 60300.00000 0 -8605386.957 -11910725.175 20827304.029 10 0 59642 61200.00000 0 -6003226.973 -11429643.627 21976881.366 10 0 59642 62100.00000 0 -3258338.501 -11126392.305 22698674.026 10 0 59642 63000.00000 0 -437034.857 -11019978.082 22978627.367 10 0 59642 63900.00000 0 2391491.404 -11117519.333 22811301.534 10 0 59642 64800.00000 0 5157808.007 -11413932.692 22199976.965 10 0 59642 65700.00000 0 7794891.893 -11892153.465 21156588.567 10 0 59642 66600.00000 0 10240677.413 -12523880.251 19701489.957 10 0 59642 67500.00000 0 12440397.939 -13270812.014 17863052.524 10 0 59642 68400.00000 0 14348623.817 -14086324.972 15677107.275 10 0 59642 69300.00000 0 15930912.266 -14917517.967 13186240.662 10 0 59642 70200.00000 0 17165001.379 -15707539.341 10438958.436 10 0 59642 71100.00000 0 18041499.604 -16398096.404 7488734.261 10 0 59642 72000.00000 0 18564043.310 -16932040.865 4392962.227 10 0 59642 72900.00000 0 18748917.667 -17255920.468 1211834.279 10 0 59642 73800.00000 0 18624158.630 -17322388.590 -1992834.973 10 0 59642 74700.00000 0 18228175.630 -17092369.793 -5158812.507 10 0 59642 75600.00000 0 17607954.717 -16536889.784 -8224656.345 10 0 59642 76500.00000 0 16816919.267 -15638492.608 -11130906.444 10 0 59642 77400.00000 0 15912539.486 -14392185.474 -13821233.796 10 0 59642 78300.00000 0 14953792.045 -12805871.536 -16243525.780 10 0 59642 79200.00000 0 13998577.017 -10900252.446 -18350887.291 10 0 59642 80100.00000 0 13101200.557 -8708204.572 -20102539.075 10 0 59642 81000.00000 0 12310028.545 -6273654.562 -21464596.930 10 0 59642 81900.00000 0 11665408.893 -3650000.353 -22410717.879 10 0 59642 82800.00000 0 11197948.749 -898142.451 -22922601.860 10 0 59642 83700.00000 0 10927217.887 1915794.030 -22990340.235 10 0 59642 84600.00000 0 10860931.852 4722953.571 -22612605.049 10 0 59642 85500.00000 0 10994648.612 7454358.795 -21796675.724 10 0 59643 0.00000 0 11311991.195 10043526.739 -20558302.728 10 0 59643 900.00000 0 11785387.417 12428987.327 -18921409.656 10 0 59643 1800.00000 0 12377295.707 14556597.451 -16917640.449 10 0 59643 2700.00000 0 13041866.905 16381560.379 -14585757.230 10 0 59643 3600.00000 0 13726972.676 17870063.806 -11970900.777 10 0 59643 4500.00000 0 14376516.177 19000470.182 -9123726.187 10 0 59643 5400.00000 0 14932928.300 19764009.644 -6099429.514 10 0 59643 6300.00000 0 15339744.579 20164946.574 -2956683.353 10 0 59643 7200.00000 0 15544154.012 20220212.608 243498.430 10 0 59643 8100.00000 0 15499411.669 19958521.365 3438944.990 10 0 59643 9000.00000 0 15167012.269 19419001.953 6567538.742 10 0 59643 9900.00000 0 14518531.621 18649408.757 9568427.467 10 0 59643 10800.00000 0 13537056.559 17703983.101 12383214.146 10 0 59643 11700.00000 0 12218141.200 16641057.258 14957100.622 10 0 59643 12600.00000 0 10570247.400 15520502.372 17239961.949 10 0 59643 13500.00000 0 8614648.972 14401128.540 19187329.827 10 0 59643 14400.00000 0 6384801.989 13338147.346 20761265.353 10 0 59643 15300.00000 0 3925206.149 12380804.492 21931103.554 10 0 59643 16200.00000 0 1289803.659 11570282.857 22674054.923 10 0 59643 17100.00000 0 -1460018.389 10937964.697 22975652.075 10 0 59643 18000.00000 0 -4257739.303 10504126.419 22830032.718 10 0 59643 18900.00000 0 -7034233.820 10277120.898 22240053.496 10 0 59643 19800.00000 0 -9720413.760 10253081.513 21217232.525 10 0 59643 20700.00000 0 -12249872.357 10416159.957 19781521.887 10 0 59643 21600.00000 0 -14561421.309 10739287.189 17960914.618 10 0 59643 22500.00000 0 -16601415.124 11185424.661 15790894.057 10 0 59643 23400.00000 0 -18325766.132 11709252.172 13313736.535 10 0 59643 24300.00000 0 -19701566.780 12259220.173 10577681.346 10 0 59643 25200.00000 0 -20708252.317 12779878.882 7635984.577 10 0 59643 26100.00000 0 -21338256.351 13214384.890 4545875.829 10 0 59643 27000.00000 0 -21597133.331 13507078.484 1367438.762 10 0 59643 27900.00000 0 -21503144.401 13606022.042 -1837562.133 10 0 59643 28800.00000 0 -21086325.756 13465391.704 -5006885.011 10 0 59643 29700.00000 0 -20387080.351 13047620.937 -8079020.512 10 0 59643 30600.00000 0 -19454353.707 12325205.309 -10994384.196 10 0 59643 31500.00000 0 -18343471.792 11282092.346 -13696468.265 10 0 59643 32400.00000 0 -17113732.738 9914597.921 -16132930.545 10 0 59643 33300.00000 0 -15825854.033 8231810.581 -18256600.201 10 0 59643 34200.00000 0 -14539382.377 6255466.691 -20026381.465 10 0 59643 35100.00000 0 -13310174.388 4019301.189 -21408038.976 10 0 59643 36000.00000 0 -12188052.980 1567900.358 -22374850.698 10 0 59643 36900.00000 0 -11214736.539 -1044896.503 -22908116.830 10 0 59643 37800.00000 0 -10422126.429 -3757981.293 -22997515.902 10 0 59643 38700.00000 0 -9831023.384 -6505266.324 -22641301.849 10 0 59643 39600.00000 0 -9450325.590 -9218185.072 -21846338.598 10 0 59643 40500.00000 0 -9276741.334 -11828302.497 -20627971.463 10 0 59643 41400.00000 0 -9295027.950 -14269928.307 -19009737.403 10 0 59643 42300.00000 0 -9478747.076 -16482626.088 -17022918.949 10 0 59643 43200.00000 0 -9791504.815 -18413515.325 -14705949.399 10 0 59643 44100.00000 0 -10188625.261 -20019271.456 -12103679.572 10 0 59643 45000.00000 0 -10619187.560 -21267741.067 -9266519.166 10 0 59643 45900.00000 0 -11028341.265 -22139105.078 -6249468.255 10 0 59643 46800.00000 0 -11359802.676 -22626541.155 -3111056.824 10 0 59643 47700.00000 0 -11558426.828 -22736357.319 87787.579 10 0 59643 48600.00000 0 -11572746.135 -22487590.742 3284922.300 10 0 59643 49500.00000 0 -11357367.603 -21911088.234 6418199.108 10 0 59643 50400.00000 0 -10875126.176 -21048106.782 9426676.764 10 0 59643 51300.00000 0 -10098901.693 -19948492.943 12251812.458 10 0 59643 52200.00000 0 -9013020.977 -18668517.821 14838608.204 10 0 59643 53100.00000 0 -7614184.044 -17268459.098 17136688.993 10 0 59643 54000.00000 0 -5911873.469 -15810032.355 19101291.049 10 0 59643 54900.00000 0 -3928227.804 -14353780.335 20694140.313 10 0 59643 55800.00000 0 -1697382.737 -12956530.580 21884203.518 10 0 59643 56700.00000 0 735693.860 -11669028.820 22648296.941 10 0 59643 57600.00000 0 3316825.458 -10533847.973 22971540.812 10 0 59643 58500.00000 0 5984641.899 -9583660.778 22847650.419 10 0 59643 59400.00000 0 8672902.485 -8839948.575 22279058.294 10 0 59643 60300.00000 0 11313030.616 -8312200.104 21276865.144 10 0 59643 61200.00000 0 13836754.449 -7997633.459 19860620.586 10 0 59643 62100.00000 0 16178743.638 -7881452.021 18057938.107 10 0 59643 63000.00000 0 18279132.345 -7937622.557 15903951.886 10 0 59643 63900.00000 0 20085823.358 -8130141.580 13440626.355 10 0 59643 64800.00000 0 21556477.493 -8414735.254 10715932.273 10 0 59643 65700.00000 0 22660105.690 -8740919.855 7782905.758 10 0 59643 66600.00000 0 23378197.927 -9054334.505 4698609.253 10 0 59643 67500.00000 0 23705342.825 -9299246.458 1523015.220 10 0 59643 68400.00000 0 23649313.220 -9421122.037 -1682165.045 10 0 59643 69300.00000 0 23230615.578 -9369153.738 -4854684.002 10 0 59643 70200.00000 0 22481523.744 -9098636.139 -7932967.987 10 0 59643 71100.00000 0 21444639.005 -8573089.851 -10857311.076 10 0 59643 72000.00000 0 20171038.287 -7766043.731 -13571029.349 10 0 59643 72900.00000 0 18718089.144 -6662400.137 -16021553.450 10 0 59643 73800.00000 0 17147023.821 -5259325.675 -18161438.846 10 0 59643 74700.00000 0 15520374.233 -3566629.917 -19949274.943 10 0 59643 75600.00000 0 13899374.962 -1606615.834 -21350476.552 10 0 59643 76500.00000 0 12341442.240 586592.395 -22337943.538 10 0 59643 77400.00000 0 10897833.291 2968217.005 -22892576.959 10 0 59643 78300.00000 0 9611582.586 5484442.225 -23003642.730 10 0 59643 79200.00000 0 8515799.892 8074412.097 -22668976.509 10 0 59643 80100.00000 0 7632399.994 10672529.063 -21895026.172 10 0 59643 81000.00000 0 6971316.076 13210959.608 -20696731.100 10 0 59643 81900.00000 0 6530228.895 15622244.627 -19097240.116 10 0 59643 82800.00000 0 6294822.639 17841907.536 -17127472.825 10 0 59643 83700.00000 0 6239556.599 19810953.043 -14825531.768 10 0 59643 84600.00000 0 6328920.409 21478153.513 -12235975.569 10 0 59643 85500.00000 0 6519120.391 22802028.145 -9408966.009 99